Bergplaas, South Africa

1:03 AM SAST on December 13, 2017 (GMT +0200)
Bergplaas

Weather History for 68828 - March, 2013

Change the Weather History Date:

Tuesday, March 5, 2013

  Actual Average Record
Temperature  
Mean Temperature 72 °F -  
Max Temperature 80 °F 72 °F - ()
Min Temperature 64 °F 56 °F - ()
Cooling Degree Days 7    
Growing Degree Days 22 (Base 50)    
Moisture  
Dew Point 63 °F    
Average Humidity 73    
Maximum Humidity 94    
Minimum Humidity 40    
Precipitation  
Precipitation 0.00 in - - ()
Sea Level Pressure  
Sea Level Pressure 29.90 in    
Wind  
Wind Speed 7 mph ()    
Max Wind Speed 18 mph    
Max Gust Speed -    
Visibility 8.1 miles    
Events      
T = Trace of Precipitation, MM = Missing Value Source: Averaged Metar Reports

Daily Weather History Graph

Daily Weather History Graph

Search for Another Location

Airport or City:

Trip Planner

Search our weather history database for the weather conditions in past years. The results will help you decide how hot, cold, wet, or windy it might be!

Date:

Astronomy

Mar. 05, 2013 Rise Set
Actual Time 6:21 AM SAST 7:01 PM SAST
Civil Twilight 5:56 AM SAST 7:26 PM SAST
Nautical Twilight 5:26 AM SAST 7:56 PM SAST
Astronomical Twilight 4:56 AM SAST 8:26 PM SAST
Moon No Moon Rise 2:03 PM SAST (3/5)
Length of Visible Light 13h 30m
Length of Day
12h 39m
Last Quarter, 44% of the Moon is Illuminated
Mar 5
Last Quarter
Mar 11
New
Mar 19
First Quarter
Mar 27
Full
Apr 3
Last Quarter

Hourly Weather History & Observations

Time (SAST) Temp. Dew Point Humidity Pressure Visibility Wind Dir Wind Speed Gust Speed Precip Events Conditions
12:00 AM 66.2 °F 64.4 °F 94% 29.83 in - West 6.9 mph - N/A   Clear
1:00 AM 68.0 °F 62.6 °F 83% 29.83 in - NNW 4.6 mph - N/A   Clear
2:00 AM 70 °F 60 °F 64% 29.81 in 12 mi WNW 5.8 mph - -  
2:00 AM 69.8 °F 60.8 °F 73% 29.80 in - NW 4.6 mph - N/A   Clear
3:00 AM 66.2 °F 59.0 °F 78% 29.80 in - NW 4.6 mph - N/A   Clear
4:00 AM 71.6 °F 55.4 °F 57% 29.80 in - NNW 5.8 mph - N/A   Clear
5:00 AM 72 °F 53 °F 40% 29.81 in 12 mi WNW 5.8 mph - -  
5:00 AM 71.6 °F 53.6 °F 53% 29.80 in - NW 4.6 mph - N/A   Clear
6:00 AM 68.0 °F 59.0 °F 73% 29.83 in - SSW 5.8 mph - N/A   Clear
7:00 AM 64.4 °F 57.2 °F 77% 29.86 in - NW 6.9 mph - N/A   Clear
8:00 AM 71 °F 61 °F 64% 29.90 in 12 mi West 6.9 mph - -   Scattered Clouds
8:00 AM 69.8 °F 62.6 °F 78% 29.89 in - West 6.9 mph - N/A   Clear
9:00 AM 73.4 °F 62.6 °F 69% 29.92 in 6.2 mi West 10.4 mph - N/A   Partly Cloudy
10:00 AM 77.0 °F 62.6 °F 61% 29.92 in - West 12.7 mph - N/A   Clear
11:00 AM 78 °F 64 °F 53% 29.96 in 12 mi SW 13.8 mph - -   Scattered Clouds
11:00 AM 78.8 °F 64.4 °F 61% 29.95 in - SW 13.8 mph - N/A   Clear
12:00 PM 77.0 °F 64.4 °F 65% 29.95 in - SSW 17.3 mph - N/A   Clear
1:00 PM 77.0 °F 64.4 °F 65% 29.95 in 6.2 mi SSW 17.3 mph - N/A   Partly Cloudy
2:00 PM 78.8 °F 64.4 °F 61% 29.95 in 6.2 mi SSW 18.4 mph - N/A   Partly Cloudy
3:00 PM 78.8 °F 66.2 °F 65% 29.95 in 6.2 mi SSW 11.5 mph - N/A   Partly Cloudy
4:00 PM 73.4 °F 66.2 °F 78% 29.95 in 6.2 mi SSW 15.0 mph - N/A   Mostly Cloudy
5:00 PM 72 °F 68 °F 83% 29.96 in 12 mi SSW 10.4 mph - -   Mostly Cloudy
5:00 PM 71.6 °F 68.0 °F 88% 29.95 in 6.2 mi SSW 10.4 mph - N/A   Mostly Cloudy
6:00 PM 71.6 °F 68.0 °F 88% 29.95 in 5.6 mi South 8.1 mph - N/A   Mostly Cloudy
7:00 PM 71.6 °F 68.0 °F 88% 29.95 in 6.2 mi South 6.9 mph - N/A   Mostly Cloudy
8:00 PM 70 °F 66 °F 85% 29.98 in 12 mi SE 3.5 mph - -   Mostly Cloudy
8:00 PM 69.8 °F 66.2 °F 88% 29.98 in 6.2 mi SE 3.5 mph - N/A   Mostly Cloudy
9:00 PM 69.8 °F 66.2 °F 88% 29.98 in 6.2 mi Variable 2.3 mph - N/A   Overcast
10:00 PM 69.8 °F 66.2 °F 88% 29.98 in 6.2 mi SE 4.6 mph - N/A   Overcast
11:00 PM 69.8 °F 66.2 °F 88% 29.95 in 6.2 mi SE 4.6 mph - N/A   Overcast